Location: *
(43.0409°N, 0.1694°E)
Time: 12:59:35
(UTC+00:00)

SKYMED 2 - Pass Details

Date: 03 October 2023
Orbit: 621 x 623 km, 97.9° (Epoch: 02 December)

Event Time Altitude Azimuth Distance (km) Brightness Sun altitude
Rises 05:04:47 0° 163° (SSE) 2,890 7.2 -10.6°
Reaches altitude 10° 05:06:57 10° 162° (SSE) 1,989 6.3 -10.2°
Maximum altitude 05:11:16 81° 77° (ENE) 638 3.7 -9.4°
Drops below altitude 10° 05:15:39 10° 349° (N) 2,006 6.1 -8.6°
Sets 05:17:51 0° 349° (N) 2,918 6.9 -8.2°
